Probability
0 26 45 55 52 48 45 42 48 42 42 32 29 26 23 23 19 19 19 23 16 13 13 13 6 6 3 0 0 0 0 0 0 0 0 0 0 0 0 0 0 0 0
0 26 55 52 48 45 45 42 42 39 35 32 29 26 23 19 19 19 19 19 13 13 10 6 6 3 0 0 0 0 0 0 0 0 0 0 0 0 0 0 0 0 0
0 19 45 52 48 45 45 42 39 35 35 26 26 23 19 23 19 16 16 13 6 6 6 3 0 0 0 0 0 0 0 0 0 0 0 0 0 0 0 0 0 0 0
0 19 45 52 48 48 42 39 35 32 29 26 26 26 23 23 16 16 16 6 6 6 0 0 0 0 0 0 0 0 0 0 0 0 0 0 0 0 0 0 0 0 0
3 16 45 48 45 45 42 39 35 26 26 26 26 26 23 19 16 16 6 6 6 0 0 0 0 0 0 0 0 0 0 0 0 0 0 0 0 0 0 0 0 0 0
3 16 39 45 45 45 45 35 29 26 26 26 26 26 23 19 16 6 6 3 0 0 0 0 0 0 0 0 0 0 0 0 0 0 0 0 0 0 0 0 0 0 0
3 16 32 48 45 45 39 35 29 26 26 26 26 26 26 19 10 3 3 0 0 0 0 0 0 0 0 0 0 0 0 0 0 0 0 0 0 0 0 0 0 0 0
3 16 32 52 52 45 39 35 26 26 26 26 26 23 23 10 3 0 0 0 0 0 0 0 0 0 0 0 0 0 0 0 0 0 0 0 0 0 0 0 0 0 0
3 10 26 35 45 42 42 35 26 26 23 23 23 19 16 6 3 0 0 0 0 0 0 0 0 0 0 0 0 0 0 0 0 0 0 0 0 0 0 0 0 0 0
3 10 23 32 35 32 26 26 16 16 16 19 10 3 0 0 0 0 0 0 0 0 0 0 0 0 0 0 0 0 0 0 0 0 0 0 0 0 0 0 0 0 0
3 13 26 29 29 29 26 13 13 10 6 3 3 0 0 0 0 0 0 0 0 0 0 0 0 0 0 0 0 0 0 0 0 0 0 0 0 0 0 0 0 0 0
3 10 23 26 23 23 23 16 13 10 10 3 3 0 0 0 0 0 0 0 0 0 0 0 0 0 0 0 0 0 0 0 0 0 0 0 0 0 0 0 0 0 0
3 6 6 13 19 23 23 19 13 13 6 6 0 0 0 0 0 0 0 0 0 0 0 0 0 0 0 0 0 0 0 0 0 0 0 0 0 0 0 0 0 0 0
0 6 6 6 16 19 19 10 10 10 6 3 0 0 0 0 0 0 0 0 0 0 0 0 0 0 0 0 0 0 0 0 0 0 0 0 0 0 0 0 0 0 0
0 6 0 3 10 16 16 6 6 6 6 0 0 0 0 0 0 0 0 0 0 0 0 0 0 0 0 0 0 0 0 0 0 0 0 0 0 0 0 0 0 0 0
0 0 0 0 6 10 6 6 6 6 0 0 0 0 0 0 0 0 0 0 0 0 0 0 0 0 0 0 0 0 0 0 0 0 0 0 0 0 0 0 0 0 0
0 0 0 0 6 3 3 6 6 6 0 0 0 0 0 0 0 0 0 0 0 0 0 0 0 0 0 0 0 0 0 0 0 0 0 0 0 0 0 0 0 0 0
0 0 0 0 3 3 3 6 6 3 3 0 0 0 0 0 0 0 0 0 0 0 0 0 0 0 0 0 0 0 0 0 0 0 0 0 0 0 0 0 0 0 0
0 0 0 0 3 3 3 6 6 3 3 0 0 0 0 0 0 0 0 0 0 0 0 0 0 0 0 0 0 0 0 0 0 0 0 0 0 0 0 0 0 0 0
0 0 0 0 3 3 3 3 3 3 0 0 0 0 0 0 0 0 0 0 0 0 0 0 0 0 0 0 0 0 0 0 0 0 0 0 0 0 0 0 0 0 0
0 0 0 0 3 3 3 3 3 0 0 0 0 0 0 0 0 0 0 0 0 0 0 0 0 0 0 0 0 0 0 0 0 0 0 0 0 0 0 0 0 0 0
0 0 0 3 3 3 3 3 3 3 0 0 0 0 0 0 0 0 0 0 0 0 0 0 0 0 0 0 0 0 0 0 0 0 0 0 0 0 0 0 0 0 0
0 0 0 0 3 3 3 3 3 0 0 0 0 0 0 0 0 0 0 0 0 0 0 0 0 0 0 0 0 0 0 0 0 0 0 0 0 0 0 0 0 0 0
0 0 0 3 0 3 3 3 0 0 0 0 0 0 0 0 0 0 0 0 0 0 0 0 0 0 0 0 0 0 0 0 0 0 0 0 0 0 0 0 0 0 0
0 0 3 3 0 0 3 3 0 0 0 0 0 0 0 0 0 0 0 0 0 0 0 0 0 0 0 0 0 0 0 0 0 0 0 0 0 0 0 0 0 0 0
0 0 3 3 0 0 0 0 0 0 0 0 0 0 0 0 0 0 0 0 0 0 0 0 0 0 0 0 0 0 0 0 0 0 0 0 0 0 0 0 0 0 0
Height
5858 5860 5862 5863 5865 5867 5869 5870 5872 5873 5874 5875 5876 5876 5877 5877 5877 5878 5878 5878 5878 5878 5877 5877 5876 5876 5875 5875 5874 5873 5872 5871 5870 5868 5867 5866 5864 5863 5861 5859 5858 5856 5853
5853 5856 5858 5860 5862 5864 5865 5867 5869 5870 5872 5872 5873 5874 5875 5875 5876 5876 5876 5876 5876 5876 5876 5875 5875 5874 5874 5873 5872 5871 5870 5869 5868 5867 5866 5864 5863 5861 5859 5857 5855 5853 5851
5848 5851 5853 5855 5858 5860 5862 5864 5866 5867 5869 5870 5871 5872 5872 5873 5874 5874 5874 5875 5874 5874 5874 5874 5873 5873 5872 5872 5871 5870 5869 5868 5867 5865 5864 5863 5861 5859 5857 5855 5853 5851 5848
5843 5846 5848 5851 5853 5855 5858 5860 5862 5864 5865 5867 5868 5869 5870 5871 5871 5872 5872 5872 5873 5873 5872 5872 5872 5871 5871 5870 5869 5868 5867 5866 5865 5864 5862 5861 5859 5857 5855 5853 5850 5848 5845
5837 5840 5843 5846 5848 5851 5853 5856 5858 5860 5862 5863 5865 5866 5867 5868 5869 5869 5870 5870 5870 5870 5870 5870 5870 5869 5869 5868 5867 5866 5865 5864 5863 5862 5860 5858 5856 5855 5852 5850 5848 5845 5842
5831 5834 5837 5840 5843 5846 5848 5851 5853 5856 5858 5859 5861 5862 5864 5865 5866 5867 5867 5868 5868 5868 5868 5868 5868 5867 5867 5866 5865 5864 5863 5862 5861 5859 5858 5856 5854 5852 5850 5847 5845 5842 5839
5824 5828 5831 5834 5837 5840 5843 5846 5848 5851 5853 5855 5857 5858 5860 5861 5862 5863 5864 5865 5865 5866 5866 5866 5865 5865 5864 5864 5863 5862 5861 5860 5858 5857 5855 5853 5851 5849 5847 5844 5841 5838 5835
5817 5820 5824 5827 5831 5834 5837 5840 5843 5846 5848 5850 5852 5854 5856 5857 5859 5860 5861 5862 5862 5863 5863 5863 5863 5862 5862 5861 5861 5860 5859 5857 5856 5854 5852 5850 5848 5846 5843 5841 5838 5835 5831
5809 5813 5817 5821 5824 5828 5831 5834 5837 5840 5843 5845 5848 5850 5852 5853 5855 5856 5857 5858 5859 5859 5860 5860 5860 5859 5859 5858 5858 5857 5856 5855 5853 5851 5849 5847 5845 5843 5840 5837 5834 5831 5828
5800 5805 5809 5813 5817 5821 5824 5828 5831 5834 5837 5840 5842 5845 5847 5849 5851 5852 5853 5855 5855 5856 5856 5856 5857 5856 5856 5855 5855 5854 5853 5852 5850 5848 5846 5844 5842 5839 5837 5834 5830 5827 5823
5792 5796 5801 5806 5810 5814 5817 5821 5824 5828 5831 5834 5836 5839 5842 5844 5846 5848 5849 5850 5852 5852 5853 5853 5853 5853 5853 5852 5852 5851 5850 5848 5847 5845 5843 5841 5838 5836 5833 5830 5826 5823 5819
5782 5787 5792 5797 5802 5806 5810 5814 5817 5821 5824 5828 5831 5834 5836 5839 5841 5843 5845 5846 5847 5848 5849 5849 5849 5849 5849 5849 5848 5847 5846 5845 5843 5841 5839 5837 5835 5832 5829 5826 5822 5819 5815
5771 5777 5783 5788 5793 5798 5802 5806 5810 5814 5818 5821 5825 5828 5831 5833 5836 5838 5840 5841 5843 5844 5845 5845 5845 5846 5845 5845 5844 5844 5843 5841 5839 5838 5835 5833 5831 5828 5825 5821 5818 5814 5810
5760 5767 5773 5779 5784 5789 5794 5798 5803 5807 5811 5815 5818 5822 5825 5828 5831 5833 5835 5837 5838 5839 5840 5841 5841 5842 5841 5841 5841 5840 5839 5837 5835 5833 5831 5829 5826 5823 5820 5817 5813 5809 5805
5748 5755 5762 5768 5774 5780 5785 5790 5794 5799 5804 5808 5812 5815 5819 5822 5825 5827 5830 5832 5833 5835 5836 5837 5837 5837 5837 5837 5836 5836 5834 5833 5831 5829 5827 5824 5822 5819 5816 5812 5808 5804 5800
5736 5744 5751 5758 5764 5770 5776 5781 5786 5791 5796 5800 5805 5809 5812 5816 5819 5822 5824 5826 5828 5830 5831 5832 5833 5833 5833 5832 5832 5831 5830 5828 5826 5824 5822 5820 5817 5814 5811 5807 5803 5799 5795
5725 5733 5740 5747 5754 5761 5767 5772 5778 5783 5788 5793 5797 5802 5806 5809 5813 5816 5819 5821 5823 5824 5826 5827 5828 5828 5828 5828 5827 5826 5825 5823 5822 5820 5817 5815 5812 5809 5805 5802 5798 5794 5789
5712 5721 5729 5737 5744 5751 5757 5763 5769 5775 5780 5785 5790 5795 5799 5803 5806 5810 5813 5815 5817 5819 5821 5822 5823 5823 5823 5823 5822 5821 5820 5818 5816 5814 5812 5809 5806 5803 5800 5796 5792 5788 5783
5701 5709 5718 5726 5734 5742 5748 5754 5760 5766 5772 5777 5782 5787 5792 5796 5800 5803 5806 5809 5811 5814 5815 5816 5817 5818 5818 5818 5817 5816 5815 5813 5811 5809 5807 5804 5801 5798 5794 5790 5786 5782 5777
5689 5698 5707 5716 5724 5732 5739 5745 5752 5758 5764 5769 5775 5780 5785 5789 5793 5797 5800 5803 5805 5808 5809 5811 5811 5812 5812 5812 5811 5811 5809 5808 5806 5804 5801 5798 5795 5792 5788 5784 5780 5776 5771
5678 5688 5697 5706 5714 5722 5729 5736 5743 5750 5756 5761 5767 5772 5777 5782 5786 5790 5793 5796 5799 5802 5803 5805 5805 5806 5806 5806 5806 5805 5803 5802 5800 5798 5795 5792 5789 5786 5782 5778 5774 5769 5764
5667 5677 5687 5696 5704 5713 5721 5728 5735 5741 5747 5753 5759 5764 5769 5774 5779 5783 5787 5790 5793 5795 5797 5798 5799 5800 5800 5800 5800 5799 5797 5796 5794 5792 5789 5786 5783 5780 5776 5771 5767 5762 5758
5658 5667 5677 5686 5695 5703 5711 5718 5725 5731 5737 5744 5750 5756 5762 5766 5771 5776 5779 5783 5786 5788 5790 5792 5793 5794 5794 5794 5793 5793 5792 5790 5788 5786 5783 5780 5777 5773 5769 5765 5761 5756 5751
5649 5658 5667 5676 5685 5693 5701 5709 5716 5723 5730 5737 5743 5748 5753 5758 5763 5768 5772 5775 5778 5781 5783 5785 5786 5787 5787 5787 5787 5786 5785 5783 5782 5779 5777 5773 5770 5766 5762 5758 5753 5749 5744
5639 5648 5657 5667 5675 5684 5692 5700 5708 5715 5721 5728 5734 5739 5745 5750 5755 5760 5764 5768 5771 5774 5776 5778 5779 5780 5780 5781 5780 5780 5778 5777 5775 5773 5770 5767 5764 5760 5755 5751 5746 5741 5736
5630 5639 5648 5657 5666 5674 5682 5691 5699 5706 5713 5719 5725 5731 5737 5742 5748 5752 5756 5760 5763 5766 5769 5770 5772 5773 5773 5774 5773 5773 5772 5770 5768 5766 5763 5760 5757 5753 5748 5744 5739 5734 5729
Wind_Speed
26 26 26 25 25 24 23 22 21 19 18 16 15 14 13 12 12 11 10 9 8 7 5 4 4 5 5 5 6 6 7 8 9 10 11 11 11 12 12 13 15 16 18
28 28 27 26 26 26 25 24 23 21 20 18 17 16 15 14 13 12 11 10 9 8 7 6 6 6 6 6 6 7 7 8 9 11 11 11 12 12 13 14 16 17 19
31 29 29 28 28 27 27 26 25 24 22 20 19 18 17 16 15 14 13 12 10 9 8 8 7 7 7 7 7 7 8 9 10 11 11 11 12 13 14 15 17 18 20
33 32 31 30 30 29 29 28 27 26 24 23 21 19 19 17 16 15 14 13 12 11 9 9 8 8 7 7 7 8 9 10 10 11 11 12 13 14 15 16 18 20 21
35 34 33 32 31 31 31 30 29 28 26 25 23 21 20 19 18 17 16 15 13 12 11 10 9 9 8 8 8 9 10 10 10 11 12 13 13 14 16 18 19 21 22
37 36 36 34 33 33 32 32 31 30 28 26 25 23 22 21 20 19 18 16 15 14 12 11 10 10 9 9 9 10 10 11 11 12 12 13 14 16 17 19 20 22 23
39 38 38 37 36 35 34 33 32 31 30 28 27 25 23 22 21 20 19 18 16 15 14 12 11 11 10 10 10 10 11 11 12 12 13 14 15 17 19 20 21 23 24
42 41 40 39 38 37 36 35 34 33 32 30 29 27 25 24 23 22 21 19 17 16 15 14 13 12 12 11 11 11 12 12 13 13 14 15 17 18 19 21 22 24 26
44 43 42 41 40 39 38 37 36 35 33 32 31 29 27 25 24 23 22 20 19 17 16 15 13 13 13 12 12 12 12 13 14 15 16 17 18 19 21 22 24 25 26
46 46 45 43 42 41 39 38 38 36 35 33 32 31 29 27 26 24 23 21 20 19 17 16 14 14 14 13 13 13 13 14 15 16 17 18 19 20 21 23 25 26 27
48 47 47 46 44 43 41 40 39 38 36 35 34 32 31 29 27 25 24 23 21 20 18 17 16 15 15 15 14 14 15 15 16 17 18 19 20 21 23 24 26 27 28
50 49 48 47 46 45 43 42 41 39 38 37 35 34 32 30 29 27 26 24 22 21 19 18 17 16 16 16 15 16 16 17 17 18 19 20 21 22 24 25 27 28 29
52 51 50 49 48 47 45 44 43 41 39 38 37 35 34 32 30 28 27 26 24 22 21 20 19 17 17 17 17 17 17 18 19 19 20 22 23 24 25 26 28 29 30
54 53 52 51 50 49 47 46 44 42 41 40 38 37 35 33 31 30 29 27 25 24 22 21 20 19 18 18 18 18 19 19 20 21 22 23 24 25 26 28 29 30 31
56 55 55 54 52 51 49 47 46 44 42 41 40 38 36 34 32 31 30 28 27 25 24 23 21 20 19 19 19 19 20 21 21 22 23 24 25 26 27 29 30 31 32
57 56 56 56 54 53 51 49 47 45 44 43 42 40 38 36 34 32 31 30 28 26 25 24 23 22 21 20 20 20 21 22 22 23 24 25 26 27 29 30 31 32 33
57 57 57 57 56 55 53 50 48 47 45 44 43 41 40 38 36 34 32 31 29 28 26 25 24 23 22 22 21 21 22 22 23 24 25 26 27 28 30 31 32 33 34
58 58 59 58 57 56 54 51 49 48 47 46 45 43 41 39 37 35 34 32 30 28 27 26 25 24 24 23 23 23 23 24 25 25 26 27 28 29 31 32 33 34 35
59 58 58 58 58 56 55 53 51 49 48 47 46 44 43 41 39 37 35 33 31 30 29 28 27 26 25 25 24 24 24 25 26 27 27 29 29 31 32 33 34 35 36
59 59 59 59 58 56 55 53 52 50 48 47 47 45 44 42 40 39 37 35 33 31 30 29 28 27 27 26 26 26 26 26 27 28 29 30 30 32 33 34 35 36 37
59 59 59 58 58 57 55 53 52 50 49 48 47 46 45 43 41 39 38 36 34 33 31 30 29 29 28 27 27 27 27 27 28 29 30 31 32 33 34 35 36 37 38
59 59 59 58 58 57 56 54 52 51 50 49 48 46 45 44 42 40 38 37 35 34 33 32 31 30 29 29 28 29 28 29 29 30 31 32 33 34 35 36 37 38 39
57 58 59 58 57 57 56 54 52 51 51 50 48 47 46 45 44 42 40 38 37 35 34 33 32 31 31 30 30 30 30 30 31 32 32 33 34 35 36 37 39 39 40
56 57 58 58 57 57 57 55 52 51 51 50 49 48 48 47 45 43 41 39 38 36 36 35 34 33 32 32 31 31 31 31 32 32 33 34 34 36 37 38 39 40 41
54 56 58 58 57 56 56 55 53 51 51 51 50 49 48 47 45 43 42 40 39 38 37 36 35 34 34 33 33 32 32 33 33 34 34 34 35 36 38 39 40 41 42
52 55 57 58 57 56 56 55 54 51 51 51 49 48 47 47 45 44 42 41 40 39 38 37 36 35 35 34 34 34 34 34 34 35 35 35 36 37 39 40 41 42 43
Wind_Direction
231 229 228 226 225 224 223 223 225 226 226 227 227 228 227 225 222 222 224 228 231 232 236 251 265 280 293 298 303 310 317 324 325 326 327 327 328 329 329 330 330 330 330
232 230 229 227 226 225 224 224 225 226 227 228 229 230 228 227 225 226 228 230 233 236 243 254 264 281 289 293 301 307 314 320 322 323 323 324 326 327 328 328 328 329 329
232 230 229 228 226 225 224 225 225 226 228 229 230 231 230 228 227 228 229 232 235 240 247 255 264 278 284 289 298 304 310 315 319 321 322 323 325 325 326 327 328 328 328
232 230 229 228 227 226 225 225 226 227 228 229 230 230 230 229 229 229 230 233 236 241 248 256 263 271 279 287 293 300 306 311 315 318 320 322 323 324 326 327 327 328 329
231 230 228 228 228 227 226 226 226 227 229 230 230 229 229 230 230 230 232 234 238 243 248 256 262 268 277 285 289 296 302 306 310 315 317 319 322 324 325 326 328 329 329
231 230 229 228 227 228 227 226 227 228 228 230 230 229 229 231 230 230 232 235 239 243 248 255 262 267 274 282 286 293 299 304 308 312 316 319 321 322 324 326 328 329 329
231 230 229 228 228 228 228 227 227 228 228 229 229 229 230 231 231 231 232 235 239 243 247 255 262 266 271 277 283 290 298 303 306 310 314 317 320 321 323 325 327 328 328
231 229 229 228 228 228 228 228 227 228 228 229 229 229 230 231 231 231 232 235 239 243 248 254 262 265 269 274 280 288 297 302 304 308 312 315 318 320 322 325 326 327 327
231 229 228 228 228 228 228 228 227 228 229 229 229 229 230 231 231 230 232 235 239 243 248 253 260 264 268 272 277 285 293 299 303 306 310 313 316 318 321 324 325 326 327
230 229 228 228 227 227 227 227 227 228 228 228 228 229 230 231 230 231 233 236 239 243 247 252 258 263 268 272 276 281 289 296 301 304 308 311 314 317 320 322 324 325 325
229 228 228 228 227 227 227 227 227 227 228 228 229 229 230 230 230 231 234 235 239 243 247 251 257 263 268 271 274 279 286 294 300 303 306 309 312 315 318 320 322 323 324
228 227 226 227 227 227 226 226 226 226 228 228 228 229 230 230 231 232 234 236 239 243 246 251 255 263 268 271 274 279 284 292 298 302 305 308 310 313 316 318 320 321 322
227 225 225 225 225 226 225 225 226 226 227 228 228 229 230 230 230 232 234 237 239 242 246 250 254 262 267 270 274 278 284 290 296 300 304 307 309 311 314 316 318 320 321
226 224 223 224 224 224 224 225 225 225 227 228 228 228 229 229 230 232 234 237 239 242 245 249 254 261 265 269 275 279 283 288 293 299 303 306 308 310 312 315 316 318 319
224 222 221 222 223 223 223 224 225 225 226 227 227 228 228 229 230 231 234 237 240 242 245 248 254 260 265 270 275 280 283 287 291 296 302 305 307 309 311 313 315 316 317
222 221 220 221 222 223 223 223 225 225 225 226 227 228 228 229 230 232 235 238 240 242 245 249 253 260 265 270 275 280 284 287 290 295 300 303 306 308 310 311 313 315 316
221 221 220 220 221 222 222 223 225 225 226 226 227 228 228 229 230 233 235 238 240 243 245 249 253 259 264 269 274 279 284 287 290 295 298 302 305 307 309 310 311 313 315
220 220 219 219 220 221 222 222 224 225 226 226 226 227 228 229 230 233 235 237 240 242 245 248 253 257 263 269 273 279 284 287 291 294 297 300 303 306 308 309 311 312 313
219 219 218 219 220 221 222 223 224 225 226 226 226 226 228 229 231 233 235 237 239 242 245 249 253 257 262 268 273 278 283 287 290 293 296 300 302 305 307 308 310 311 312
218 218 218 219 219 220 222 223 224 225 225 226 225 226 227 229 231 233 235 236 238 242 245 248 252 257 262 268 272 277 282 287 290 293 296 299 301 304 306 307 309 310 312
217 218 218 219 218 219 221 221 223 224 225 226 225 226 227 229 231 233 234 236 238 242 245 248 252 257 262 267 272 276 281 285 289 293 296 298 301 303 305 307 308 310 311
216 217 218 218 218 219 220 221 221 223 224 225 225 226 227 229 231 233 235 236 238 241 245 248 252 257 261 266 270 275 279 284 288 292 296 298 301 303 305 306 307 309 311
216 216 217 218 219 219 219 220 220 222 223 224 225 226 227 229 230 232 234 236 238 241 244 248 252 257 260 265 269 274 278 283 288 292 295 298 300 303 304 306 307 309 310
216 216 217 218 219 219 220 220 221 222 223 224 225 227 228 229 231 233 235 236 238 241 245 248 252 256 260 265 269 273 277 283 287 290 293 296 299 301 303 305 307 308 310
216 216 216 217 219 219 219 220 220 221 222 223 224 226 228 229 231 232 235 237 239 242 246 249 252 256 261 264 268 272 277 282 286 289 292 295 298 301 303 304 306 308 310
216 216 216 216 218 218 218 219 220 221 222 223 224 225 227 229 230 232 235 238 241 244 246 249 252 256 260 264 268 272 277 282 285 289 292 295 298 301 302 304 306 308 310